G0BMH-13 Weather Reports


time (UTC)temp
C
wind
direction
speed
KPH
gust
KPH
rain 1hr
cm
rain 24hr
cm
rain mn
cm
humidity
%
barometer
mb
20260506045003 3 84 0.0 4.8 0.00 0.00 0.00 78 1015.7
20260506044503 3 73 0.0 3.2 0.00 0.00 0.00 78 1015.9
20260506044003 3 64 0.0 3.2 0.00 0.00 0.00 78 1015.8
20260506043503 3 72 1.6 4.8 0.00 0.00 0.00 78 1015.9
20260506043003 3 80 1.6 4.8 0.00 0.00 0.00 78 1015.8
20260506042503 3 83 1.6 4.8 0.00 0.00 0.00 78 1015.6
20260506042003 3 84 1.6 3.2 0.00 0.00 0.00 78 1015.7
20260506041504 3 83 1.6 4.8 0.00 0.00 0.00 78 1015.9
20260506041024 3 83 1.6 4.8 0.00 0.00 0.00 79 1015.7
20260506040504 3 88 1.6 3.2 0.00 0.00 0.00 79 1015.6
20260506040004 4 90 3.2 11.3 0.00 0.00 0.00 79 1015.8
20260506035524 4 91 3.2 11.3 0.00 0.00 0.00 78 1015.9
20260506035004 4 93 1.6 6.4 0.00 0.00 0.00 79 1015.8
20260506034503 4 90 1.6 6.4 0.00 0.00 0.00 79 1015.9
20260506034004 4 78 1.6 4.8 0.00 0.00 0.00 80 1015.9
20260506033503 4 72 1.6 6.4 0.00 0.00 0.00 80 1016.0
20260506033004 4 77 1.6 6.4 0.00 0.00 0.00 80 1015.9
20260506032504 4 79 1.6 9.7 0.00 0.00 0.00 80 1015.9
20260506032004 4 82 1.6 9.7 0.00 0.00 0.00 80 1016.0
20260506031503 4 81 1.6 11.3 0.00 0.00 0.00 80 1016.0
20260506031003 4 74 1.6 11.3 0.00 0.00 0.00 80 1015.9
20260506030503 5 61 0.0 3.2 0.00 0.00 0.00 80 1016.0
20260506030004 5 76 1.6 3.2 0.00 0.00 0.00 80 1015.8
20260506025504 5 80 1.6 4.8 0.00 0.00 0.00 80 1016.0
20260506025004 5 77 1.6 6.4 0.00 0.00 0.00 80 1016.1
20260506024503 5 76 1.6 9.7 0.00 0.00 0.00 80 1016.0
20260506024004 5 75 1.6 9.7 0.00 0.00 0.00 80 1015.9
20260506023504 5 79 1.6 4.8 0.00 0.00 0.00 80 1016.0
20260506023025 5 87 1.6 6.4 0.00 0.00 0.00 80 1015.9
20260506022503 5 87 1.6 6.4 0.00 0.00 0.00 80 1016.0
20260506022025 5 83 1.6 6.4 0.00 0.00 0.00 80 1015.9
20260506021504 5 89 0.0 3.2 0.00 0.00 0.00 80 1015.8
20260506021004 5 57 1.6 4.8 0.00 0.00 0.00 80 1015.8
20260506020504 5 57 1.6 6.4 0.00 0.00 0.00 80 1016.1
20260506020025 5 67 1.6 6.4 0.00 0.00 0.00 80 1015.9
20260506015504 5 61 1.6 6.4 0.00 0.00 0.00 80 1015.9
20260506015025 5 60 1.6 9.7 0.00 0.00 0.00 80 1016.1
20260506014504 5 74 1.6 9.7 0.00 0.00 0.00 80 1016.1
20260506014003 5 66 1.6 11.3 0.00 0.00 0.00 80 1016.1
20260506013504 5 32 1.6 11.3 0.00 0.00 0.00 80 1016.0
20260506013003 5 21 0.0 4.8 0.00 0.00 0.00 80 1016.0
20260506012525 5 29 0.0 4.8 0.00 0.00 0.00 80 1016.2
20260506012004 5 43 0.0 4.8 0.00 0.00 0.00 80 1016.2
20260506011503 5 90 0.0 4.8 0.00 0.00 0.00 80 1016.0
20260506011003 5 98 1.6 4.8 0.00 0.00 0.00 80 1016.1
20260506010525 5 92 1.6 6.4 0.00 0.00 0.00 79 1016.1
20260506010025 5 82 3.2 11.3 0.00 0.00 0.00 79 1016.2
20260506005503 5 82 4.8 12.9 0.00 0.00 0.00 79 1016.1
20260506005003 5 78 4.8 12.9 0.00 0.00 0.00 79 1016.1
20260506004504 5 76 4.8 11.3 0.00 0.00 0.00 78 1016.0
20260506004003 5 77 3.2 9.7 0.00 0.00 0.00 78 1016.2
20260506003525 5 79 3.2 9.7 0.00 0.00 0.00 77 1016.0
20260506003003 5 77 3.2 11.3 0.00 0.00 0.00 77 1016.2
20260506002504 5 76 4.8 14.5 0.00 0.00 0.00 77 1016.3
20260506002003 5 83 4.8 14.5 0.00 0.00 0.00 76 1016.1
20260506001503 5 73 3.2 9.7 0.00 0.00 0.00 77 1016.1
20260506001003 5 64 1.6 9.7 0.00 0.00 0.00 77 1016.2
20260506000504 5 81 3.2 9.7 0.00 0.00 0.00 77 1016.1
20260506000024 5 84 3.2 6.4 0.00 0.00 0.00 77 1016.2
20260505235503 6 83 3.2 6.4 0.00 0.00 0.00 77 1016.3
20260505235024 6 85 3.2 6.4 0.00 0.00 0.00 78 1016.2
20260505234503 6 86 3.2 6.4 0.00 0.00 0.00 78 1016.3
20260505234004 6 84 3.2 9.7 0.00 0.00 0.00 78 1016.2
20260505233525 6 83 3.2 9.7 0.00 0.00 0.00 78 1016.3
20260505233004 6 89 3.2 9.7 0.00 0.00 0.00 78 1016.3
20260505232504 6 91 3.2 9.7 0.00 0.00 0.00 78 1016.4
20260505232004 6 85 3.2 9.7 0.00 0.00 0.00 78 1016.5
20260505231503 6 83 3.2 9.7 0.00 0.00 0.00 77 1016.3
20260505231004 6 80 3.2 11.3 0.00 0.00 0.00 77 1016.5
20260505230504 6 78 3.2 11.3 0.00 0.00 0.00 77 1016.3
20260505230004 6 78 3.2 6.4 0.00 0.00 0.00 77 1016.5
20260505225525 6 83 3.2 6.4 0.00 0.00 0.00 77 1016.6
20260505225003 6 81 3.2 11.3 0.00 0.00 0.00 77 1016.4
20260505224503 6 80 3.2 11.3 0.00 0.00 0.00 76 1016.6
20260505224004 6 83 4.8 12.9 0.00 0.00 0.00 76 1016.4
20260505223504 6 80 4.8 12.9 0.00 0.00 0.00 76 1016.4
20260505223004 6 78 4.8 11.3 0.00 0.00 0.00 76 1016.6
20260505222504 6 84 4.8 14.5 0.00 0.00 0.00 76 1016.5
20260505222004 6 83 4.8 16.1 0.00 0.00 0.00 77 1016.4
20260505221504 6 80 4.8 16.1 0.00 0.00 0.00 77 1016.4
20260505221005 6 83 4.8 12.9 0.00 0.00 0.00 78 1016.3
20260505220504 6 84 4.8 12.9 0.00 0.00 0.00 78 1016.5
20260505220004 6 82 6.4 17.7 0.00 0.00 0.00 78 1016.4
20260505215504 6 87 6.4 17.7 0.00 0.00 0.00 77 1016.3
20260505215004 6 90 3.2 11.3 0.00 0.00 0.00 77 1016.4
20260505214504 6 83 1.6 9.7 0.00 0.00 0.00 77 1016.5
20260505214004 6 84 1.6 6.4 0.00 0.00 0.00 77 1016.3
20260505213504 6 86 3.2 6.4 0.00 0.00 0.00 77 1016.2
20260505213004 6 90 3.2 11.3 0.00 0.00 0.00 76 1016.6
20260505212525 6 86 4.8 11.3 0.00 0.00 0.00 76 1016.3
20260505212004 6 78 4.8 11.3 0.00 0.00 0.00 76 1016.5
20260505211524 6 77 4.8 17.7 0.00 0.00 0.00 75 1016.4
20260505211025 6 77 4.8 17.7 0.00 0.00 0.00 75 1016.4
20260505210503 6 78 4.8 12.9 0.00 0.00 0.00 75 1016.4
20260505210004 6 83 4.8 14.5 0.00 0.00 0.00 75 1016.2
20260505205504 6 80 6.4 16.1 0.00 0.00 0.00 75 1016.2
20260505205004 6 76 6.4 16.1 0.00 0.00 0.00 75 1016.4
20260505204504 6 70 4.8 16.1 0.00 0.00 0.00 75 1016.4
20260505204024 6 69 4.8 12.9 0.00 0.00 0.00 75 1016.1
20260505203524 6 77 4.8 12.9 0.00 0.00 0.00 75 1016.1
20260505203004 6 82 4.8 12.9 0.00 0.00 0.00 75 1016.4
20260505202503 6 77 4.8 12.9 0.00 0.00 0.00 75 1016.3
20260505202003 7 75 4.8 12.9 0.00 0.00 0.00 75 1016.3
20260505201504 6 76 4.8 12.9 0.00 0.00 0.00 74 1016.2
20260505201004 7 73 4.8 14.5 0.00 0.00 0.00 75 1016.3
20260505200503 7 73 6.4 14.5 0.00 0.00 0.00 74 1016.0
20260505200024 7 69 4.8 14.5 0.00 0.00 0.00 74 1016.2
20260505195503 7 54 4.8 14.5 0.00 0.00 0.00 74 1016.1
20260505195003 7 63 6.4 14.5 0.00 0.00 0.00 74 1016.1
20260505194503 7 77 4.8 14.5 0.00 0.00 0.00 74 1016.0
20260505194004 7 82 4.8 14.5 0.00 0.00 0.00 74 1016.0
20260505193503 7 75 4.8 16.1 0.00 0.00 0.00 74 1015.9
20260505193003 7 76 4.8 16.1 0.00 0.00 0.00 73 1015.9
20260505192503 7 79 4.8 17.7 0.00 0.00 0.00 74 1015.6
20260505192024 7 70 4.8 17.7 0.00 0.00 0.00 74 1015.8
20260505191503 7 64 4.8 12.9 0.00 0.00 0.00 74 1015.8
20260505191003 7 74 4.8 16.1 0.00 0.00 0.00 74 1015.7
20260505190503 7 74 4.8 16.1 0.00 0.00 0.00 74 1015.8
20260505190025 7 70 3.2 12.9 0.00 0.00 0.00 74 1015.7
20260505185503 7 78 3.2 12.9 0.00 0.00 0.00 75 1015.7
20260505185004 7 78 4.8 16.1 0.00 0.00 0.00 75 1015.5
20260505184503 7 73 6.4 17.7 0.00 0.00 0.00 75 1015.6
20260505184004 7 72 4.8 17.7 0.00 0.00 0.00 75 1015.7
20260505183504 7 78 4.8 16.1 0.00 0.00 0.00 75 1015.5
20260505183025 8 78 4.8 12.9 0.00 0.00 0.00 74 1015.6
20260505182503 8 66 4.8 12.9 0.00 0.00 0.00 74 1015.6
20260505182003 8 67 6.4 17.7 0.00 0.00 0.00 74 1015.5
20260505181504 8 73 6.4 17.7 0.00 0.00 0.00 74 1015.5
20260505181003 8 65 3.2 11.3 0.00 0.00 0.00 74 1015.3
20260505180503 8 68 4.8 16.1 0.00 0.00 0.00 74 1015.5
20260505180024 8 77 4.8 16.1 0.00 0.00 0.00 74 1015.3
20260505175503 8 79 4.8 16.1 0.00 0.00 0.00 73 1015.1
20260505175003 8 83 4.8 14.5 0.00 0.00 0.00 73 1015.1
20260505174503 8 82 4.8 14.5 0.00 0.00 0.00 73 1015.3
20260505174003 8 80 6.4 16.1 0.00 0.00 0.00 73 1015.3
20260505173503 8 80 6.4 17.7 0.00 0.00 0.00 74 1015.2
20260505173003 9 78 4.8 20.9 0.00 0.00 0.00 74 1015.2
20260505172503 9 77 4.8 20.9 0.00 0.00 0.00 74 1015.2
20260505172003 9 76 4.8 17.7 0.00 0.00 0.00 74 1015.1
20260505171503 9 79 3.2 17.7 0.00 0.00 0.00 74 1015.3
20260505171003 9 79 3.2 6.4 0.00 0.00 0.00 74 1015.4
20260505170524 9 77 3.2 11.3 0.00 0.00 0.00 74 1015.2
20260505170003 9 80 3.2 11.3 0.00 0.00 0.00 73 1015.2
20260505165503 9 82 4.8 11.3 0.00 0.00 0.00 73 1015.1
20260505165003 9 80 4.8 12.9 0.00 0.00 0.00 73 1015.2
20260505164524 9 76 4.8 14.5 0.00 0.00 0.00 73 1015.2
20260505164024 9 74 4.8 14.5 0.00 0.00 0.00 73 1015.3
20260505163503 9 74 4.8 14.5 0.00 0.00 0.00 73 1015.1
20260505163004 9 78 3.2 11.3 0.00 0.00 0.00 73 1015.2
20260505162503 10 82 3.2 11.3 0.00 0.00 0.00 73 1015.1
20260505162003 10 84 3.2 11.3 0.00 0.00 0.00 73 1015.2
20260505161503 10 87 3.2 11.3 0.00 0.00 0.00 73 1015.1
20260505161003 10 81 3.2 11.3 0.00 0.00 0.00 73 1015.1
20260505160503 10 78 3.2 12.9 0.00 0.00 0.00 73 1014.9
20260505153003 11 343 4.8 12.9 0.00 0.00 0.00 67 1015.0
20260505152503 12 321 3.2 12.9 0.00 0.00 0.00 65 1015.2
20260505152003 12 284 1.6 4.8 0.00 0.00 0.00 61 1014.8
20260505151503 12 299 1.6 6.4 0.00 0.00 0.00 61 1014.7
20260505151003 12 310 3.2 11.3 0.00 0.00 0.00 61 1014.9
20260505150503 12 321 4.8 11.3 0.00 0.00 0.00 62 1014.9
20260505140503 11 279 6.4 12.9 0.00 0.00 0.00 61 1014.9
20260505125003 11 301 6.4 14.5 0.00 0.00 0.00 61 1014.8
20260505124503 11 303 6.4 14.5 0.00 0.00 0.00 60 1014.9
20260505124024 11 296 6.4 11.3 0.00 0.00 0.00 58 1014.9
20260505123503 11 298 4.8 11.3 0.00 0.00 0.00 59 1014.9
20260505123003 11 317 4.8 11.3 0.00 0.00 0.00 60 1015.1
20260505122503 11 326 4.8 11.3 0.00 0.00 0.00 60 1014.9
20260505122003 11 336 3.2 9.7 0.00 0.00 0.00 60 1015.0
20260505121503 11 359 3.2 9.7 0.00 0.00 0.00 59 1015.1
20260505121024 12 351 1.6 9.7 0.00 0.00 0.00 59 1015.0
20260505120503 12 333 3.2 6.4 0.00 0.00 0.00 59 1015.0
20260505120003 11 320 3.2 6.4 0.00 0.00 0.00 61 1015.0
20260505115503 11 343 3.2 6.4 0.00 0.00 0.00 63 1015.0
20260505115003 11 32 1.6 6.4 0.00 0.00 0.00 63 1015.1
20260505114503 10 24 1.6 6.4 0.00 0.00 0.00 63 1014.9
20260505114003 11 350 3.2 9.7 0.00 0.00 0.00 66 1015.1
20260505113503 10 336 4.8 12.9 0.00 0.00 0.00 67 1015.3
20260505113003 10 324 6.4 12.9 0.00 0.00 0.00 67 1015.3
20260505112503 10 320 6.4 12.9 0.00 0.00 0.00 67 1015.4
20260505112003 10 322 4.8 9.7 0.00 0.00 0.00 66 1015.3
20260505111503 10 309 3.2 9.7 0.00 0.00 0.00 66 1015.2
20260505111003 10 296 3.2 9.7 0.00 0.00 0.00 66 1015.2
20260505110503 10 301 4.8 11.3 0.00 0.00 0.00 66 1015.1
20260505102004 9 318 4.8 9.7 0.00 0.00 0.00 74 1015.2
20260505101503 9 326 4.8 11.3 0.00 0.00 0.00 73 1015.3
20260505101003 9 328 4.8 11.3 0.00 0.00 0.00 72 1015.4
20260505100503 9 320 3.2 11.3 0.00 0.00 0.00 74 1015.3
20260505100003 10 315 3.2 11.3 0.00 0.00 0.00 75 1015.2
20260505095503 9 318 4.8 12.9 0.00 0.00 0.00 75 1015.4
20260505095003 9 318 6.4 12.9 0.00 0.00 0.00 74 1015.4
20260505094524 9 307 4.8 12.9 0.00 0.00 0.00 73 1015.2
20260505094003 10 300 4.8 11.3 0.00 0.00 0.00 73 1015.2
20260505093503 10 301 6.4 12.9 0.00 0.00 0.00 71 1015.3
20260505093003 10 306 6.4 12.9 0.00 0.00 0.00 71 1015.4
20260505092503 10 303 4.8 12.9 0.00 0.00 0.00 72 1015.3
20260505092003 10 299 4.8 12.9 0.00 0.00 0.00 71 1015.4
20260505091503 10 297 6.4 12.9 0.00 0.00 0.00 70 1015.1
20260505091003 10 294 4.8 12.9 0.00 0.00 0.00 71 1015.3
20260505090503 9 300 4.8 9.7 0.00 0.00 0.00 74 1015.2
20260505090003 9 295 4.8 9.7 0.00 0.00 0.00 74 1015.2
20260505085503 9 290 4.8 9.7 0.00 0.00 0.00 75 1015.3
20260505085003 9 287 4.8 6.4 0.00 0.00 0.00 75 1015.4
20260505084503 9 289 4.8 9.7 0.00 0.00 0.00 75 1015.6
20260505084003 9 295 4.8 12.9 0.00 0.00 0.00 75 1015.5
20260505083503 9 298 4.8 12.9 0.00 0.00 0.00 75 1015.4
20260505083003 8 306 3.2 9.7 0.00 0.00 0.00 75 1015.6
20260505082524 8 307 3.2 6.4 0.00 0.00 0.00 76 1015.6
20260505082003 8 301 1.6 4.8 0.00 0.00 0.00 76 1015.4
20260505081503 8 300 1.6 4.8 0.00 0.00 0.00 77 1015.6
20260505081003 8 300 1.6 6.4 0.00 0.00 0.00 76 1015.4
20260505080503 8 290 3.2 6.4 0.00 0.00 0.00 77 1015.5
20260505080003 8 277 3.2 6.4 0.00 0.00 0.00 76 1015.4
20260505075503 8 274 1.6 6.4 0.00 0.00 0.00 76 1015.4
20260505075003 8 272 1.6 3.2 0.00 0.00 0.00 77 1015.6
20260505074503 8 274 0.0 3.2 0.00 0.00 0.00 78 1015.4
20260505074003 8 280 1.6 3.2 0.00 0.00 0.00 78 1015.4
20260505073503 7 277 1.6 4.8 0.00 0.00 0.00 78 1015.1
20260505073024 7 274 1.6 4.8 0.00 0.00 0.00 78 1015.4
20260505072524 7 268 0.0 3.2 0.00 0.00 0.00 80 1015.4
20260505072003 7 233 0.0 1.6 0.00 0.00 0.00 81 1015.5
20260505071503 7 248 0.0 1.6 0.00 0.00 0.00 82 1015.4
20260505071003 7 262 0.0 1.6 0.00 0.00 0.00 82 1015.5
20260505070503 7 267 1.6 4.8 0.00 0.00 0.00 82 1015.7
20260505070003 7 268 1.6 4.8 0.00 0.00 0.00 82 1015.5
20260505065503 7 271 0.0 3.2 0.00 0.00 0.00 85 1015.6
20260505065003 7 246 0.0 1.6 0.00 0.00 0.00 86 1015.7
20260505064524 7 245 0.0 1.6 0.00 0.00 0.00 87 1015.8
20260505064003 6 243 0.0 1.6 0.00 0.00 0.00 87 1015.7
20260505063524 6 239 0.0 1.6 0.00 0.00 0.00 88 1015.7
20260505063024 6 233 0.0 3.2 0.00 0.00 0.00 89 1015.8
20260505062524 6 230 0.0 3.2 0.00 0.00 0.00 89 1015.5
20260505062003 6 264 0.0 1.6 0.00 0.00 0.00 90 1015.6
20260505061503 6 264 0.0 1.6 0.00 0.00 0.00 90 1015.5
20260505061003 6 251 0.0 1.6 0.00 0.00 0.00 90 1015.7
20260505060503 6 237 0.0 1.6 0.00 0.00 0.00 90 1015.4
20260505060003 6 198 0.0 1.6 0.00 0.00 0.00 90 1015.5
20260505055503 6 0 0.0 0.0 0.00 0.00 0.00 91 1015.2
20260505055003 6 0 0.0 0.0 0.00 0.00 0.00 91 1015.3
20260505054524 6 143 0.0 1.6 0.00 0.00 0.00 91 1015.4
20260505054024 6 143 0.0 1.6 0.00 0.00 0.00 91 1015.5
20260505053503 5 143 1.6 1.6 0.00 0.00 0.00 92 1015.4
20260505053004 5 143 1.6 1.6 0.00 0.00 0.00 92 1015.4
20260505052503 5 158 1.6 3.2 0.00 0.00 0.00 92 1015.3
20260505052024 5 191 1.6 3.2 0.00 0.00 0.00 93 1015.2
20260505051503 5 238 0.0 1.6 0.00 0.00 0.00 93 1015.3
20260505051003 5 238 0.0 1.6 0.00 0.00 0.00 93 1015.2
20260505050503 4 238 0.0 1.6 0.00 0.00 0.00 93 1015.3